Location: ????????
(55.7667°N, 37.4833°E)
Time: 11:16:26
(UTC+00:00)

Cosmos 44 Rocket - Pass Details

Date: 19 May 2025
Orbit: 651 x 728 km, 65.1° (Epoch: 13 June)

Event Time Altitude Azimuth Distance (km) Brightness Sun altitude
Rises 22:57:47 0° 311° (NW) 3,018 6.9 -11.8°
Reaches altitude 10° 23:00:08 10° 306° (NW) 2,112 6.0 -11.7°
Maximum altitude 23:04:44 47° 233° (SW) 906 3.5 -11.4°
Drops below altitude 10° 23:09:24 10° 161° (SSE) 2,147 5.4 -11.2°
Enters shadow 23:10:56 - 157° (SSE) 2,731 6.0 -11.1°
